Terug naar catalogus

SPEKTR R

ActiefWetenschapHEO
NORAD 37755·PAYLOAD·🇷🇺 Russia

Gelanceerd Jul 18, 2011 vanaf Baikonur Cosmodrome

Loading…

Volgende Passages (komende 24 uur)

TLE

VerouderdSource: Space-Track

Epoch: Oct 1, 2025, 20:46 UTC

1 37755U 11037A   25274.86529625 -.00000320  00000-0  00000-0 0  9998
2 37755  86.2960 317.6811 6943482 350.5069   4.1793  0.11323121  5611

Volg SPEKTR R in realtime met AllMySat

Download on the App Store